sat.trackr.live / text

‹ back to catalog

STARLINK-30595

NORAD 58111 · 2023-161Q

PAYLOAD ACTIVE UNKNOWN

§ Identity

Operator
Country
US
Launch date
2023-10-21
Launch site
AFWTR
Launch vehicle
Mass (kg)
RCS (m²)

Purposes: comms

External: N2YO · Heavens-Above · Gunter

§ Orbital elements

Epoch: 2026-09-20T22:10:47.586432Z

Period
93.85 min
Inclination
53.1601°
Eccentricity
0.0000848
Mean motion
15.34395114 rev/d
Perigee alt
462.1 km
Apogee alt
463.3 km
Semi-major
6,840.9 km
B*
-1.1495e-5
RAAN
337.9313°
Arg perigee
94.9852°
Mean anomaly
265.1247°
Rev number
16,432

§ Raw data

STARLINK-305951 58111U 23161Q   26263.92416188 -.00000764  00000+0 -11495-4 0  99992 58111  53.1601 337.9313 0000848  94.9852 265.1247 15.34395114164329

JSON: /api/v1/satellites/58111 · /tle

For live sub-satellite position, see the globe view (requires WebGL).

§ Visibility from observer

Set your observer location to see the next 7 days of passes ≥ 10°. The values pass through the URL so the page stays shareable.

No JS? Fill the form by hand. The geolocation button needs JavaScript.